CDR112 CYYC-CYQL

Flight info

Callsign CDR112
Flight time 0h 24m
Altitude 20000
Route GADKI T727 VOBUK
Aircraft F28/M-SDFIRWY/H

Departure

Time 2026-04-22 06:47
Airport Calgary International Airport (CYYC)

Arrival

Time 2026-04-22 07:12
Airport Lethbridge County Airport (CYQL)
Time Latitude Longitude Altitude Speed Heading
2026-04-22 06:19 51.13426 -114.01284 3557 ft 0 kts 90°
2026-04-22 06:39 51.13427 -114.01300 3557 ft 3 kts 93°
2026-04-22 06:39 51.13426 -114.01321 3554 ft 3 kts 131°
2026-04-22 06:39 51.13435 -114.01326 3553 ft 3 kts 182°
2026-04-22 06:40 51.13450 -114.01325 3556 ft 3 kts 173°
2026-04-22 06:40 51.13457 -114.01326 3554 ft 0 kts 180°
2026-04-22 06:44 51.13456 -114.01326 3554 ft 1 kts 180°
2026-04-22 06:44 51.13434 -114.01347 3551 ft 7 kts 230°
2026-04-22 06:44 51.13426 -114.01447 3557 ft 12 kts 271°
2026-04-22 06:44 51.13415 -114.01588 3553 ft 17 kts 243°
2026-04-22 06:45 51.13367 -114.01744 3557 ft 15 kts 244°
2026-04-22 06:45 51.13307 -114.01851 3555 ft 12 kts 190°
2026-04-22 06:45 51.13223 -114.01855 3557 ft 12 kts 181°
2026-04-22 06:45 51.13140 -114.01857 3557 ft 12 kts 185°
2026-04-22 06:46 51.13096 -114.01933 3555 ft 9 kts 269°
2026-04-22 06:46 51.13096 -114.02022 3558 ft 7 kts 270°
2026-04-22 06:46 51.13095 -114.02090 3558 ft 7 kts 260°
2026-04-22 06:46 51.13040 -114.02137 3557 ft 11 kts 178°
2026-04-22 06:47 51.12750 -114.02136 3551 ft 85 kts 180°
2026-04-22 06:47 51.11876 -114.02135 3628 ft 159 kts 180°
2026-04-22 06:47 51.10632 -114.02129 4396 ft 196 kts 179°
2026-04-22 06:47 51.09143 -114.02071 5302 ft 229 kts 178°
2026-04-22 06:48 51.07523 -114.01988 6453 ft 234 kts 178°
2026-04-22 06:48 51.05923 -114.01842 7551 ft 236 kts 177°
2026-04-22 06:48 51.04194 -114.01714 7647 ft 249 kts 178°
2026-04-22 06:48 51.02471 -114.01615 7789 ft 243 kts 178°
2026-04-22 06:49 51.00809 -114.01528 8249 ft 236 kts 178°
2026-04-22 06:49 50.99171 -114.01442 8728 ft 236 kts 178°
2026-04-22 06:49 50.97529 -114.01297 9198 ft 237 kts 170°
2026-04-22 06:49 50.96041 -114.00205 9683 ft 238 kts 147°
2026-04-22 06:50 50.94704 -113.98652 10139 ft 238 kts 143°
2026-04-22 06:50 50.93381 -113.97014 10599 ft 246 kts 143°
2026-04-22 06:50 50.92016 -113.95344 11074 ft 251 kts 144°
2026-04-22 06:50 50.90601 -113.93672 11555 ft 257 kts 146°
2026-04-22 06:51 50.89128 -113.92002 12040 ft 265 kts 147°
2026-04-22 06:51 50.87587 -113.90321 12538 ft 274 kts 148°
2026-04-22 06:51 50.85968 -113.88611 13049 ft 286 kts 149°
2026-04-22 06:51 50.84270 -113.86860 13592 ft 296 kts 150°
2026-04-22 06:52 50.82522 -113.85074 14145 ft 303 kts 150°
2026-04-22 06:52 50.80725 -113.83274 14711 ft 309 kts 151°
2026-04-22 06:52 50.78883 -113.81439 15282 ft 316 kts 151°
2026-04-22 06:52 50.77010 -113.79573 15868 ft 321 kts 151°
2026-04-22 06:53 50.75107 -113.77669 16457 ft 326 kts 151°
2026-04-22 06:53 50.73179 -113.75729 17057 ft 331 kts 151°
2026-04-22 06:53 50.71255 -113.73781 17663 ft 334 kts 151°
2026-04-22 06:53 50.69287 -113.71802 18242 ft 337 kts 152°
2026-04-22 06:54 50.67259 -113.69946 18785 ft 337 kts 157°
2026-04-22 06:54 50.65125 -113.68412 19341 ft 337 kts 161°
2026-04-22 06:54 50.62906 -113.67049 19579 ft 349 kts 163°
2026-04-22 06:54 50.60572 -113.65745 19682 ft 363 kts 164°
2026-04-22 06:55 50.58185 -113.64481 19701 ft 361 kts 165°
2026-04-22 06:55 50.55806 -113.63263 19698 ft 358 kts 165°
2026-04-22 06:55 50.53443 -113.62042 19693 ft 356 kts 165°
2026-04-22 06:55 50.51094 -113.60819 19696 ft 355 kts 165°
2026-04-22 06:56 50.48755 -113.59598 19689 ft 353 kts 165°
2026-04-22 06:56 50.46430 -113.58381 19689 ft 352 kts 165°
2026-04-22 06:56 50.44111 -113.57168 19689 ft 351 kts 165°
2026-04-22 06:56 50.41802 -113.55961 19691 ft 350 kts 165°
2026-04-22 06:57 50.39494 -113.54754 19690 ft 349 kts 165°
2026-04-22 06:57 50.37192 -113.53550 19687 ft 348 kts 165°
2026-04-22 06:57 50.34895 -113.52349 19686 ft 347 kts 165°
2026-04-22 06:57 50.32602 -113.51165 19682 ft 347 kts 165°
2026-04-22 06:58 50.30282 -113.49974 19251 ft 354 kts 165°
2026-04-22 06:58 50.27967 -113.48776 18799 ft 345 kts 165°
2026-04-22 06:58 50.25727 -113.47606 18323 ft 335 kts 165°
2026-04-22 06:58 50.23540 -113.46480 17837 ft 327 kts 166°
2026-04-22 06:59 50.21395 -113.45390 17308 ft 321 kts 165°
2026-04-22 06:59 50.19290 -113.44312 16771 ft 316 kts 165°
2026-04-22 06:59 50.17243 -113.43266 16262 ft 312 kts 165°
2026-04-22 06:59 50.15194 -113.42228 15772 ft 308 kts 164°
2026-04-22 07:00 50.13170 -113.41190 15294 ft 304 kts 164°
2026-04-22 07:00 50.11170 -113.40165 14821 ft 301 kts 164°
2026-04-22 07:00 50.09185 -113.39158 14361 ft 301 kts 163°
2026-04-22 07:00 50.07133 -113.38107 13910 ft 319 kts 163°
2026-04-22 07:01 50.05688 -113.37369 13612 ft 327 kts 163°
2026-04-22 07:01 50.03532 -113.36269 13143 ft 325 kts 163°
2026-04-22 07:01 50.01417 -113.35188 12658 ft 323 kts 162°
2026-04-22 07:01 49.99292 -113.34090 12170 ft 321 kts 162°
2026-04-22 07:02 49.97179 -113.33003 11694 ft 319 kts 162°
2026-04-22 07:02 49.95076 -113.31931 11219 ft 317 kts 162°
2026-04-22 07:02 49.92986 -113.30853 10755 ft 315 kts 162°
2026-04-22 07:02 49.90925 -113.29786 10291 ft 309 kts 162°
2026-04-22 07:03 49.88900 -113.28751 9833 ft 304 kts 162°
2026-04-22 07:03 49.86905 -113.27732 9371 ft 300 kts 162°
2026-04-22 07:03 49.84931 -113.26729 8885 ft 297 kts 162°
2026-04-22 07:03 49.82964 -113.25740 8405 ft 296 kts 162°
2026-04-22 07:04 49.81006 -113.24767 7937 ft 295 kts 161°
2026-04-22 07:04 49.79049 -113.23780 7470 ft 294 kts 161°
2026-04-22 07:04 49.77115 -113.22807 7014 ft 289 kts 161°
2026-04-22 07:04 49.75256 -113.21879 6566 ft 281 kts 160°
2026-04-22 07:05 49.73422 -113.20950 6123 ft 274 kts 160°
2026-04-22 07:05 49.71628 -113.20041 5943 ft 267 kts 160°
2026-04-22 07:05 49.69899 -113.19169 5943 ft 255 kts 160°
2026-04-22 07:05 49.68307 -113.18147 5941 ft 242 kts 143°
2026-04-22 07:06 49.67314 -113.16201 5936 ft 227 kts 111°
2026-04-22 07:06 49.67024 -113.13881 5946 ft 213 kts 101°
2026-04-22 07:06 49.66798 -113.11693 5933 ft 199 kts 103°
2026-04-22 07:06 49.66491 -113.09688 5943 ft 182 kts 108°
2026-04-22 07:07 49.66112 -113.07889 5955 ft 174 kts 112°
2026-04-22 07:07 49.65675 -113.06164 5968 ft 171 kts 115°
2026-04-22 07:07 49.65205 -113.04492 5925 ft 170 kts 114°
2026-04-22 07:07 49.64753 -113.02780 5816 ft 173 kts 114°
2026-04-22 07:08 49.64310 -113.01035 5776 ft 175 kts 113°
2026-04-22 07:08 49.63877 -112.99295 5717 ft 171 kts 112°
2026-04-22 07:08 49.63481 -112.97570 5557 ft 171 kts 111°
2026-04-22 07:08 49.63105 -112.95858 5315 ft 160 kts 109°
2026-04-22 07:09 49.62793 -112.94299 5017 ft 147 kts 108°
2026-04-22 07:09 49.62509 -112.92796 4549 ft 138 kts 108°
2026-04-22 07:09 49.62307 -112.91468 4482 ft 126 kts 106°
2026-04-22 07:09 49.62099 -112.90127 4377 ft 134 kts 106°
2026-04-22 07:10 49.61905 -112.88715 4288 ft 137 kts 104°
2026-04-22 07:10 49.61715 -112.87275 4041 ft 139 kts 104°
2026-04-22 07:10 49.61546 -112.85815 3982 ft 139 kts 94°
2026-04-22 07:10 49.61728 -112.84322 3708 ft 144 kts 71°
2026-04-22 07:11 49.62050 -112.82958 3440 ft 126 kts 71°
2026-04-22 07:11 49.62350 -112.81701 3166 ft 122 kts 70°
2026-04-22 07:11 49.62587 -112.80691 3042 ft 83 kts 70°
2026-04-22 07:11 49.62756 -112.79974 3034 ft 61 kts 70°
2026-04-22 07:12 49.62869 -112.79496 3027 ft 37 kts 70°
2026-04-22 07:12 49.62945 -112.79168 3022 ft 27 kts 69°
2026-04-22 07:12 49.63013 -112.79001 3025 ft 15 kts 22°
2026-04-22 07:12 49.63089 -112.78969 3025 ft 7 kts 14°
2026-04-22 07:13 49.63100 -112.78965 3021 ft 0 kts 14°
2026-04-22 07:13 49.63104 -112.78963 3033 ft 2 kts 14°
2026-04-22 07:13 49.63127 -112.78955 3026 ft 5 kts 13°
2026-04-22 07:14 49.63195 -112.78930 3021 ft 11 kts 13°
2026-04-22 07:14 49.63270 -112.78903 3023 ft 11 kts 13°
2026-04-22 07:14 49.63335 -112.78878 3024 ft 3 kts 25°
2026-04-22 07:14 49.63337 -112.78865 3022 ft 1 kts 112°
2026-04-22 07:15 49.63334 -112.78861 3022 ft 0 kts 141°